STARLINK-36615, 67621

Orbit data source: Space-Track

STARLINK-36615, 67621 is a payload satellite owned by SpaceX/Seattle (US) in LEO that was launched on Fri, 30 Jan 2026 UTC via an FALCON 9 launch vehicle from the Air Force Eastern Test Range (AFETR). Payload-class satellites include a variety of spacecraft equipped with specific instruments for various scientific and technological missions. These include communications satellites like Starlink; space stations such as the ISS; scientific satellites like the Hubble; Earth observation satellites from companies like Planet Labs, Umbra, and HawkEye 360; GPS; miniature CubeSats for education and research; and military/defense satellites.

Loading next visibility...
Identifier
67621, 2026-020E
Orbit
LEO
Country
Flag of USUS
Related business
Manufacturer
SpaceX/Seattle
Mission
Operational Commercial Communications
Bus & Motor
STARLINK V2MO, Unknown motor
Mass
575 kg wet, ~530 kg dry
Launch date (UTC)
2026-01-30 (5 months ago)
Launch vehicle
FALCON 9
Launch site
Air Force Eastern Test Range (AFETR)
Object type
Payload
Rocket body
Debris
Shape & HBR
Box + 2 Pan, 17.7 m
Radar Cross Section
36.964 m², Large (>1 m²)

Expand to show TLE details & history
Last TLE update: 13 hours ago

TLE from 13 hours ago
0 STARLINK-36615
1 67621U 26020E   26171.37202625  .00028356  00000-0  10352-2 0  9993
2 67621  42.9988 280.2129 0001340 256.5491 103.5211 15.27604775 21817
Epoch: 2026-06-20T08:55Z
TLE epoch observation values (Epoch: 2026-06-20T08:55:43.067Z)
Latitude
-0.00002°
Longitude
-122.30417°
Altitude
482.965 km
Speed
7.626 km/s
True Right ascension
18h 40m 51s
True Declination
0° 00' 00"
Sunlit
Object was in full shadow at epoch
Visualization orbit readout
Latitude
Unknown
Longitude
Unknown
Altitude
Unknown
Speed
Unknown
Apparent Right ascension
Unknown
Apparent Declination
Unknown
Sunlit
N/A
Visualization observer readout
Local Sidereal Time
08:42:38
Azimuth
Unknown
Elevation
Unknown
Doppler factor
Unknown
Orbital elements
Apogee altitude
485.84 km
Perigee altitude
484.001 km
Semi-major axis
6,863.057 km
Eccentricity
0.00013
Inclination
42.9988°
RAAN
280.2129°
Arg. of periapsis
256.5491°
True anomaly
103.53603°
Mean anomaly
103.5211°
Eccentric anomaly
103.52856°
Mean motion
3.81739 °/min
Orbital period
94.31 mins
BSTAR
0.0010352
Loading maneuver chart data...
Computing Atmospheric mass density...
Loading historical data...
Loading historical data...
Loading historical data...
Loading historical data...
Loading historical data...
Loading historical data...
Loading historical data...

Documentation

Showing up to 5 results
|